Location: Ottawa
(45.4170°N, 75.7000°W)
Time: 19:40:27
(UTC-05:00)

Daily predictions for brighter satellites

Satellite Brightness Start Highest point End
(mag) Time Altitude Azimuth Time Altitude Azimuth Time Altitude Azimuth
ALOS 3.3 18:02:06 10° ESE 18:05:52 25° ENE 18:09:39 10° N
Meteor 1-14 Rocket 4.5 18:02:53 10° S 18:08:40 56° E 18:14:31 10° NNE
SJ-6B 3.5 18:05:52 10° SE 18:09:29 33° ENE 18:13:03 10° N
Cosmos 2082 Rocket 3.4 18:08:39 10° SW 18:14:06 46° WNW 18:19:37 10° NNE
Cosmos 1461 3.5 18:11:42 10° NNW 18:15:21 33° NE 18:19:04 10° ESE
SL-16 R/B 2.4 18:10:45 10° NNW 18:16:18 52° ENE 18:21:49 10° SE
Cosmos 1484 Rocket 3.7 18:12:34 10° S 18:16:28 54° W 18:20:22 10° NNW
CENTAUR R/B 3.4 18:10:36 10° NW 18:18:24 77° SW 18:26:45 10° SSE
Cosmos 1633 4.1 18:27:37 10° SE 18:29:57 16° E 18:32:17 10° NE
SKYMED 2 3.9 18:26:01 10° N 18:30:22 71° WNW 18:34:41 10° SSW
NOSS 2-2 (E) 3.5 18:26:33 10° SW 18:30:39 84° SE 18:35:32 10° NE
Cosmos 1975 Rocket 3.3 18:26:20 10° NNW 18:30:40 75° W 18:34:57 10° S
Cosmos 44 Rocket 3.7 18:26:07 10° NW 18:30:52 66° WSW 18:35:29 10° SSE
HJ-1C 4.1 18:29:28 10° SE 18:32:32 33° ENE 18:35:36 10° N
RESURS DK-1 4.4 18:32:13 10° WSW 18:35:47 27° NW 18:39:22 10° N
Cosmos 2322 Rocket 2.1 18:30:11 10° NNW 18:35:50 74° ENE 18:41:26 10° SSE
Okean 1 3.6 18:32:13 10° N 18:36:09 45° ENE 18:40:03 10° SSE
Cosmos 1340 3.5 18:36:01 10° N 18:39:22 28° ENE 18:42:40 10° SE
USA 215 4.3 18:36:59 10° NE 18:42:46 35° N 18:48:32 10° WNW
Nadezhda 1 Rocket 4.0 18:37:11 10° N 18:43:19 89° WSW 18:49:23 10° S
Meteor 1-28 Rocket 3.9 18:39:45 10° N 18:43:31 59° WNW 18:47:14 10° SSW
Cosmos 2322 4.4 18:39:26 10° NNW 18:44:39 34° NE 18:48:38 16° ESE
Tiangong 2 1.8 18:46:19 10° W 18:49:16 43° S 18:50:56 21° SE
Cosmos 1536 Rocket 3.6 18:45:02 10° N 18:49:26 56° ENE 18:53:50 10° SSE
CZ-2D R/B 4.1 18:47:18 17° ESE 18:49:30 29° ENE 18:52:50 10° N
NOSS 2-2 (D) 3.7 18:46:32 10° SW 18:50:37 76° NW 18:55:29 10° NE
Cosmos 1818 4.1 18:45:53 10° S 18:50:48 36° ESE 18:54:45 15° NE
Cosmos 2181 Rocket 4.2 18:45:23 10° N 18:51:24 49° ENE 18:57:27 10° SSE
Meteor 1-25 Rocket 4.2 18:46:14 10° S 18:51:50 86° E 18:57:33 10° NNE
Resurs 01 Rocket 1.7 18:49:15 10° SSE 18:53:32 53° ENE 18:57:50 10° N
DNEPR-1 R/B 3.4 18:49:15 10° NW 18:53:35 89° SW 18:57:48 10° SE
Meteor 2-4 Rocket 4.4 18:49:34 10° N 18:54:33 31° ENE 18:58:03 17° ESE
COSMOS 2428 3.8 18:50:28 10° N 18:55:04 24° NE 18:56:56 21° ENE
Cosmos 44 3.8 18:55:24 10° NW 18:59:45 52° WSW 19:03:56 10° SSE
Meteor 1-11 Rocket 4.2 18:55:18 10° SSE 19:00:35 39° E 19:05:59 10° NNE
DELTA 2 R/B (1) 4.2 18:57:15 10° WSW 19:02:37 47° S 19:05:58 22° ESE
H-2A R/B 2.7 18:59:12 10° SSE 19:02:48 52° ENE 19:06:27 10° N
FENGYUN 3A 3.6 18:58:20 10° SSE 19:03:44 81° ENE 19:09:11 10° NNW
NOSS 2-2 (C) 4.2 19:03:51 10° SW 19:07:53 54° NW 19:12:42 10° NNE
deb Kosmos-1763 4.1 19:04:59 10° SSW 19:08:48 87° WNW 19:12:37 10° NNE
Cosmos 2237 Rocket 4.0 19:07:00 10° N 19:09:50 14° NE 19:10:17 14° NE
Cosmos 1812 3.9 19:06:31 10° NNW 19:10:13 44° W 19:13:53 10° SSW
Cosmos 676 Rocket 3.9 19:11:28 10° S 19:16:34 64° ESE 19:21:44 10° NNE
Cosmos 2074 Rocket 4.5 19:11:21 10° SSE 19:16:55 36° E 19:22:33 10° NNE
Cosmos 407 Rocket 3.5 19:11:43 10° SSW 19:16:57 90° ESE 19:22:18 10° NNE
Cosmos 1709 Rocket 3.9 19:12:16 10° S 19:18:31 82° E 19:24:44 10° N
Resurs 1-3 3.5 19:16:49 10° SSE 19:21:12 85° ENE 19:25:37 10° NNW
USA 186 4.0 19:25:49 15° N 19:25:49 15° N 19:26:30 10° N
Cosmos 1300 Rocket 3.4 19:21:33 10° S 19:25:55 68° E 19:30:20 10° NNE
ATLAS CENTAUR R/B 4.2 19:27:06 10° WNW 19:29:00 12° NNW 19:30:51 10° N
Cosmos 2360 Rocket 2.1 19:23:45 10° NNW 19:29:26 77° ENE 19:32:44 26° SSE
SAR-Lupe-1 3.9 19:33:10 82° E 19:33:11 82° E 19:36:48 10° NNW
Cosmos 2219 Rocket 3.3 19:28:57 10° N 19:33:20 26° NE 19:33:20 26° NE
Cosmos 2208 Rocket 4.3 19:29:31 10° NNW 19:34:50 48° ENE 19:35:31 46° E
Cosmos 1602 3.6 19:31:20 10° S 19:35:11 88° W 19:39:07 10° N
Cosmos 2285 Rocket 4.4 19:30:13 10° N 19:36:16 40° ENE 19:37:06 38° ENE
SAR-Lupe-4 3.6 19:36:35 51° S 19:37:22 75° WSW 19:40:58 10° NNW
SL-16 R/B 4.3 19:38:12 10° NNE 19:39:22 11° NNE 19:39:22 11° NNE
GEOS 3 Rocket 4.1 19:35:51 14° NNE 19:40:21 60° NW 19:45:32 10° SW
ALOS 3.6 19:38:43 10° SSW 19:43:06 40° W 19:47:31 10° NNW
Cosmos 1238 Rocket 3.5 19:43:48 10° NNW 19:46:37 40° W 19:46:37 40° W
Cosmos 1140 Rocket 3.3 19:42:39 10° SSW 19:47:45 73° ESE 19:49:25 43° NE
Cosmos 1833 4.0 19:42:24 10° SSW 19:48:06 80° ESE 19:51:45 23° NNE
Spot 1 4.2 19:49:08 42° SSW 19:50:19 66° WSW 19:54:26 10° NNW
Spot 2 Rocket 4.4 19:45:58 10° S 19:50:49 47° W 19:55:43 10° NNW
Cosmos 2333 Rocket 3.3 19:46:03 10° N 19:50:09 28° NE 19:50:09 28° NE
Okean 1 Rocket 3.1 19:48:18 10° S 19:52:47 83° W 19:57:19 10° N
SL-16 R/B 4.2 19:55:28 10° NW 20:00:04 26° WSW 20:04:39 10° SSW
Okean 1-7 Rocket 3.7 19:57:06 10° NNW 20:01:39 74° W 20:01:49 72° WSW
Helios 1A 3.7 20:02:04 41° SW 20:03:04 51° W 20:07:09 10° NNW
Cosmos 1633 4.2 20:01:17 10° SW 20:04:39 34° WNW 20:08:04 10° N
Envisat 3.0 20:07:28 67° N 20:07:28 67° N 20:11:56 10° NNW
USA 229 DEB 3.7 20:02:35 10° NW 20:09:39 63° NE 20:10:23 59° ENE
USA 229 3.8 20:02:41 10° NW 20:09:44 62° NE 20:10:27 59° ENE
ERS-1 Rocket 4.3 20:25:45 32° N 20:25:45 32° N 20:28:26 10° N
USA 215 4.2 20:23:42 32° NNE 20:24:46 34° N 20:30:30 10° NW
ATLAS 2AS CENTAUR R/B 4.4 20:20:36 10° NW 20:26:53 24° NNE 20:28:35 22° NNE
Resurs 01 Rocket 4.4 20:27:31 10° SW 20:30:19 16° W 20:33:08 10° NW
COSMOS 2428 3.2 20:34:12 10° NNW 20:39:00 57° WNW 20:39:00 57° WNW
NOSS 3-1 (C) 4.3 20:37:02 10° NNW 20:43:24 51° NNE 20:43:24 51° NNE
BREEZE-M DEB (TANK) 4.4 20:41:32 10° WNW 20:44:45 54° WSW 20:44:45 54° WSW
Cosmos 2237 Rocket 3.8 20:49:28 10° NNW 20:52:08 28° N 20:52:08 28° N
Cosmos 2219 Rocket 3.9 21:12:28 10° NNW 21:15:05 28° NW 21:15:05 28° NW
SL-16 R/B 4.5 21:20:01 10° NNW 21:21:16 17° NNW 21:21:16 17° NNW
Cosmos 2333 Rocket 4.3 21:30:01 10° NW 21:32:10 23° NW 21:32:10 23° NW
